Regional Weather Roundup
Issued by NWS

Home | Current Version | Previous Version | Text Only | Print | Product List | Glossary On
Versions: 1 2 3 4 5 6 7 8 9 10 11 12 13 14 15 16 17 18 19 20 21 22 23 24 25 26 27 28 29 30 31 32 33 34 35 36 37 38 39 40 41 42 43 44 45 46 47 48 49 50
000
ASUS43 KTOP 020259
RWRKS

WEATHER ROUNDUP FOR KANSAS
NATIONAL WEATHER SERVICE GOODLAND KS
900 PM CST SUN FEB 01 2015

NOTE:  "FAIR" INDICATES FEW OR NO CLOUDS BELOW 12,000 FEET WITH NO
SIGNIFICANT WEATHER AND/OR OBSTRUCTIONS TO VISIBILITY.

KSZ001>006-013>018-027>032-041>047-020400-
NORTHWEST KANSAS

CITY           SKY/WX    TMP DP  RH WIND       PRES   REMARKS
GOODLAND       CLEAR      6   2  83 NE3       30.25F
HAYS           CLEAR     12  -2  52 N17G24    30.35R WCI  -5
HILL CITY      CLEAR     11   2  67 N14       30.35S WCI  -5
RUSSELL        FAIR      11   5  77 NW23G30   30.34R WCI  -9
$$

KSZ061>065-074>080-084>089-020400-
SOUTHWEST KANSAS

CITY           SKY/WX    TMP DP  RH WIND       PRES   REMARKS
DODGE CITY     CLEAR     14   5  67 N17G25    30.31R WCI  -3
ELKHART          N/A     19  10  68 N8          N/A
GARDEN CITY    CLEAR     13   5  70 N16       30.32R WCI  -3
LIBERAL        CLEAR     19   7  58 N18       30.33R WCI   4
$$

KSZ066>073-081>083-090>101-020400-
SOUTHEAST KANSAS

CITY           SKY/WX    TMP DP  RH WIND       PRES   REMARKS
CHANUTE        MOCLDY    15   7  70 NW21G32   30.25R WCI  -2
COFFEYVILLE    CLOUDY    17   8  67 NW21G29   30.29R WCI   0
HUTCHINSON     CLOUDY    14   5  67 N26G35    30.32R WCI  -6
MEDICINE LODGE   N/A     18   9  68 N21G28    30.34R WCI   1
NEWTON         PTCLDY    12   3  67 N24G32    30.29R WCI  -8
PARSONS        CLOUDY    16   8  71 NW22G29   30.27R WCI  -2
WICHITA INTL   FLURRIES  16   6  65 N21G30    30.31R WCI  -1
WICHITA JABRA  CLOUDY    14  11  87 N24G38    30.30R WCI  -5
WICHITA MCCONL FLURRIES  14   9  79 N20       30.30R WCI  -3
WINFIELD       FLURRIES  16   8  71 N25       30.32R WCI  -3
$$

KSZ007>012-019>026-033>040-048>060-102>105-020400-
NORTHEAST KANSAS

CITY           SKY/WX    TMP DP  RH WIND       PRES   REMARKS
CONCORDIA      PTCLDY     7   1  76 N18G25    30.35R WCI -12
EMPORIA        MIX PCPN  11   6  81 NW25      30.28R WCI -10
LAWRENCE       FLURRIES  13   7  77 NW22G31   30.25R WCI  -6
MANHATTAN      FLURRIES   9   3  77 NW9G16    30.35R
OLATHE IND     FLURRIES  15   9  76 NW23G33   30.20R WCI  -3
OLATHE EXE     LGT SNOW  15  11  83 NW17G28   30.17R FOG     WCI  -1
SALINA         FLURRIES  13   6  74 NW21      30.37R WCI  -5
TOPEKA BILLARD MIX PCPN  12   5  73 NW22G30   30.29R WCI  -7
TOPEKA FORBES  FLURRIES  13   6  74 NW23      30.25R WCI  -6
$$



USA.gov is the U.S. government's official web portal to all federal, state and local government web resources and services.